Погода в Ивацевичах

Беларусь     52°42′32″N   25°20′19″E
темп.,
°C
ветер,
м/с
пор.,
м/с
влажн.,
%
обл.,
%
осадки,
мм/ч
давл.,
гПа
погр.,
м
22 января, сб
сб2200:00−3зсз8148695 0.1 1007862
03:00−4зсз71491100 0.1 1007796
06:00−3сз61294100 0.4 1007864
09:00−4ссз6119194 1.0 1009661
12:00−4с7128699 0.1 1013772
15:00−4ссз71182100 0.1 1015894
18:00−4сз71387100 0.1 1017759
21:00−4сз71391100 0.1 1019765
23 января, вс
вс2300:00−5ссз6129298 0.1 1020622
03:00−5ссз6129399 0.4 1021653
06:00−6с5109294 0.2 1023466
09:00−9с499573 0.2 1026259
12:00−7ссв478865 0.0 1029360
15:00−6ссв468179 0.0 1030499
18:00−9с24945 0.0 103353
21:00−10ссв24966 0.0 103574
24 января, пн
пн2400:00−11св249622 0.0 103765
03:00−12всв129750 0.0 103837
06:00−13с119722 0.0 103811
09:00−13ссв009742 0.0 103910
12:00−9ююв11875 0.0 1039110
15:00−6юз22805 0.0 1037282
18:00−9юз11925 0.0 103710
21:00−11юз22965 0.0 103619
25 января, вт
вт2500:00−10юз23967 0.0 103549
03:00−9юз3695100 0.0 103395
06:00−7юз3892100 0.0 1030196
09:00−5юз3896100 0.5 1028200
12:00−3зюз3796100 0.4 1026237
15:00−2зюз3797100 0.6 1024286
18:00−1з3898100 0.5 1023263
21:000ссз51097100 0.8 1022592
26 января, ср
ср2600:000с51098100 0.3 1023613
03:00−3ссз6119141 0.4 1025364
06:00−7с499580 0.0 1026222
09:00−4с5780100 0.1 1027433
12:00−4с468426 0.0 1028606
15:00−4ссз458779 0.0 1027421
18:00−8сз2296100 0.0 102712
21:00−7зюз2296100 0.0 102546